Location: Alsip
(41.6689°N, 87.7387°W)
Time: 04:25:41
(UTC+00:00)

STRAND 1 - Visible Passes

Search period start: 26 October 2021 00:00
Search period end: 05 November 2021 00:00
Orbit: 768 x 780 km, 98.4° (Epoch: 25 October)

Date Brightness Start Highest point End Pass type
(mag) Time Alt. Az. Time Alt. Az. Time Alt. Az.
26 Oct ? 00:21:10 28° E 00:21:43 29° E 00:26:07 10° SSE visible
26 Oct ? 01:56:16 10° N 02:01:38 33° W 02:05:29 10° SW visible
26 Oct ? 11:33:01 10° SE 11:37:50 41° ENE 11:42:40 10° N visible
26 Oct ? 23:47:25 14° E 23:47:25 14° E 23:49:52 10° ESE visible
27 Oct ? 01:27:51 58° SW 01:27:51 58° SW 01:32:03 10° SSW visible
27 Oct ? 11:00:13 10° ESE 11:04:02 21° ENE 11:07:52 10° NNE visible
28 Oct ? 00:53:52 48° SE 00:53:52 48° SE 00:57:54 10° S visible
28 Oct ? 02:34:18 13° W 02:34:18 13° W 02:35:07 10° WSW visible
28 Oct ? 10:29:11 10° ENE 10:30:26 11° ENE 10:31:41 10° NE visible
29 Oct ? 00:19:48 25° ESE 00:19:48 25° ESE 00:22:55 10° SSE visible
29 Oct ? 02:00:12 24° WSW 02:00:12 24° WSW 02:02:29 10° SW visible
29 Oct ? 11:30:01 10° SE 11:34:47 39° ENE 11:39:33 10° N visible
29 Oct ? 23:45:38 12° ESE 23:45:38 12° ESE 23:46:25 10° ESE visible
30 Oct ? 01:26:03 35° SSW 01:26:03 35° SSW 01:29:00 10° SSW visible
30 Oct ? 10:57:18 10° ESE 11:01:00 20° ENE 11:04:42 10° NNE visible
31 Oct ? 00:51:50 33° SSE 00:51:50 33° SSE 00:54:46 10° S visible
31 Oct ? 10:26:53 10° ENE 10:27:24 10° ENE 10:27:55 10° NE visible
01 Nov ? 00:17:36 20° SE 00:17:36 20° SE 00:19:43 10° SSE visible
01 Nov ? 01:58:00 19° SW 01:58:00 19° SW 01:59:29 10° SW visible
01 Nov ? 11:27:02 10° SE 11:31:44 37° ENE 11:36:26 10° N visible
02 Nov ? 01:23:43 27° SSW 01:23:43 27° SSW 01:25:56 10° SSW visible
02 Nov ? 10:54:24 10° ESE 10:57:58 19° ENE 11:01:32 10° NNE visible
03 Nov ? 00:49:24 25° SSE 00:49:24 25° SSE 00:51:38 10° S visible
04 Nov ? 00:15:04 16° SE 00:15:04 16° SE 00:16:29 10° SSE visible
04 Nov ? 01:55:29 16° SW 01:55:29 16° SW 01:56:29 10° SW visible
04 Nov ? 11:24:03 10° SE 11:28:40 35° ENE 11:33:19 10° N visible
